Weather History for Nome, AK

Change the Weather History Date:

Saturday, October 20, 2012

  Actual Average Record
Temperature  
Mean Temperature 33 °F 27 °F  
Max Temperature 35 °F 33 °F 44 °F (1976)
Min Temperature 30 °F 21 °F 1 °F (1996)
Degree Days  
Heating Degree Days 32 38  
Month to date heating degree days 636 676  
Since 1 July heating degree days 2290 2206  
Cooling Degree Days 0    
Month to date cooling degree days 0  
Year to date cooling degree days 0  
Moisture  
Dew Point 31 °F    
Average Humidity 0    
Maximum Humidity 0    
Minimum Humidity 0    
Precipitation  
Precipitation 0.00 in 0.04 in 0.33 in (1938)
Month to date precipitation 1.13 1.12  
Year to date precipitation 17.88 14.02  
Snow  
Snow 0.00 in 0.20 in 1.80 in (1955)
Month to date snowfall 0.3 2.2  
Since 1 July snowfall 0.6 2.8  
Since 1 September snowfall 0.6 2.8  
Snow Depth 0.00 in    
Sea Level Pressure  
Sea Level Pressure 30.44 in    
Wind  
Wind Speed 8 mph (East)    
Max Wind Speed 15 mph    
Max Gust Speed 20 mph    
Visibility 4 miles    
Events Fog    
T = Trace of Precipitation, MM = Missing Value Source: NWS Daily Summary

Daily Weather History Graph

Daily Weather History Graph

Search for Another Location

Airport:

Trip Planner

Search our weather history database for the weather conditions in past years. The results will help you decide how hot, cold, wet, or windy it might be!

Date:

Astronomy

Oct. 20, 2012 Rise Set
Actual Time 10:11 AM AKDT 7:20 PM AKDT
Civil Twilight 9:20 AM AKDT 8:10 PM AKDT
Nautical Twilight 8:24 AM AKDT 9:07 PM AKDT
Astronomical Twilight 7:27 AM AKDT 10:03 PM AKDT
Moon 5:06 PM AKDT (10/20) 11:16 PM AKDT (10/20)
Length of Visible Light 10h 50m
Length of Day
9h 09m
Waxing Crescent, 35% of the Moon is Illuminated
Oct 20
Waxing Crescent
Oct 21
First Quarter
Oct 29
Full
Nov 6
Last Quarter
Nov 13
New

Hourly Weather History & Observations

Time (AKDT) Temp. Windchill Dew Point Humidity Pressure Visibility Wind Dir Wind Speed Gust Speed Precip Events Conditions
12:23 AM 30.2 °F 25.4 °F 30.2 °F 100% 30.40 in 2.0 mi ENE 4.6 mph - N/A   Overcast
12:53 AM 30.0 °F 26.5 °F 30.0 °F 100% 30.41 in 1.5 mi ENE 3.5 mph - N/A   Overcast
1:15 AM 30.2 °F 26.7 °F 30.2 °F 100% 30.41 in 2.0 mi East 3.5 mph - N/A   Overcast
1:24 AM 30.2 °F 25.4 °F 30.2 °F 100% 30.41 in 1.5 mi ENE 4.6 mph - N/A   Overcast
1:53 AM 30.0 °F 25.2 °F 30.0 °F 100% 30.42 in 1.0 mi East 4.6 mph - N/A   Mist
2:02 AM 30.2 °F 25.4 °F 30.2 °F 100% 30.42 in 0.8 mi East 4.6 mph - N/A   Mist
2:53 AM 30.0 °F 24.1 °F 30.0 °F 100% 30.43 in 0.5 mi ENE 5.8 mph - N/A Fog Light Freezing Fog
3:18 AM 30.2 °F 26.7 °F 30.2 °F 100% 30.43 in 0.5 mi East 3.5 mph - N/A Fog Light Freezing Fog
3:36 AM 30.2 °F 26.7 °F 30.2 °F 100% 30.44 in 0.8 mi ENE 3.5 mph - N/A   Mist
3:51 AM 30.2 °F 26.7 °F 30.2 °F 100% 30.44 in 0.5 mi East 3.5 mph - N/A Fog Light Freezing Fog
3:53 AM 30.0 °F 26.5 °F 30.0 °F 100% 30.44 in 0.5 mi ENE 3.5 mph - N/A Fog Light Freezing Fog
4:07 AM 30.2 °F 26.7 °F 30.2 °F 100% 30.44 in 0.5 mi ENE 3.5 mph - N/A Fog Light Freezing Fog
4:29 AM 30.2 °F - 30.2 °F 100% 30.44 in 0.5 mi Calm Calm - N/A Fog Light Freezing Fog
4:53 AM 30.0 °F - 30.0 °F 100% 30.45 in 0.5 mi Calm Calm - N/A Fog Light Freezing Fog
5:07 AM 30.2 °F 26.7 °F 30.2 °F 100% 30.44 in 0.5 mi ENE 3.5 mph - N/A Fog Light Freezing Fog
5:23 AM 30.2 °F - 30.2 °F 100% 30.45 in 1.0 mi Calm Calm - N/A   Mist
5:28 AM 30.2 °F - 30.2 °F 100% 30.45 in 3.0 mi Calm Calm - N/A   Overcast
5:53 AM 30.0 °F - 30.0 °F 100% 30.45 in 10.0 mi Calm Calm - N/A   Overcast
6:44 AM 30.2 °F 25.4 °F 30.2 °F 100% 30.46 in 10.0 mi East 4.6 mph - N/A   Overcast
6:53 AM 30.0 °F 25.2 °F 30.0 °F 100% 30.45 in 10.0 mi East 4.6 mph - N/A   Overcast
7:53 AM 30.0 °F 24.1 °F 30.0 °F 100% 30.47 in 10.0 mi East 5.8 mph - N/A   Overcast
8:53 AM 30.0 °F 24.1 °F 30.0 °F 100% 30.47 in 10.0 mi East 5.8 mph - N/A   Overcast
9:21 AM 30.2 °F 23.4 °F 30.2 °F 100% 30.46 in 0.8 mi ENE 6.9 mph - N/A   Mist
9:33 AM 30.2 °F 21.9 °F 30.2 °F 100% 30.46 in 0.5 mi ENE 9.2 mph - N/A Fog Light Freezing Fog
9:53 AM 30.9 °F 22.8 °F 30.9 °F 100% 30.45 in 0.2 mi ENE 9.2 mph - N/A Fog Light Freezing Fog
10:00 AM 30.2 °F 22.6 °F 30.2 °F 100% 30.46 in 0.2 mi East 8.1 mph - N/A Fog Light Freezing Fog
10:11 AM 30.2 °F 22.6 °F 30.2 °F 100% 30.46 in 0.5 mi East 8.1 mph - N/A Fog Light Freezing Fog
10:20 AM 30.2 °F 21.9 °F 30.2 °F 100% 30.45 in 1.0 mi East 9.2 mph - N/A   Overcast
10:49 AM 30.2 °F 22.6 °F 30.2 °F 100% 30.46 in 0.5 mi East 8.1 mph - N/A Fog Light Freezing Fog
10:53 AM 30.9 °F 23.5 °F 30.9 °F 100% 30.47 in 0.5 mi East 8.1 mph - N/A Fog Light Freezing Fog
11:23 AM 30.2 °F 23.4 °F 30.2 °F 100% 30.47 in 0.8 mi East 6.9 mph - N/A   Mist
11:53 AM 30.9 °F 22.8 °F 30.9 °F 100% 30.47 in 0.8 mi East 9.2 mph - N/A   Mist
12:09 PM 30.2 °F 21.3 °F 30.2 °F 100% 30.46 in 0.2 mi East 10.4 mph - N/A Fog Light Freezing Fog
12:53 PM 32.0 °F 23.6 °F 32.0 °F 100% 30.47 in 0.2 mi East 10.4 mph - N/A Fog Fog
1:53 PM 32.0 °F 24.2 °F 32.0 °F 100% 30.47 in 0.2 mi East 9.2 mph - N/A Fog Fog
2:53 PM 32.0 °F 24.8 °F 32.0 °F 100% 30.46 in 0.2 mi East 8.1 mph - N/A Fog Fog
3:13 PM 33.8 °F 27.0 °F 33.8 °F 100% 30.46 in 1.0 mi East 8.1 mph - N/A   Mist
3:53 PM 33.1 °F 26.9 °F 33.1 °F 100% 30.46 in 1.5 mi East 6.9 mph - N/A   Overcast
4:00 PM 33.8 °F 26.4 °F 33.8 °F 100% 30.45 in 10.0 mi East 9.2 mph - N/A   Overcast
4:53 PM 34.0 °F 26.6 °F 33.1 °F 96% 30.45 in 8.0 mi East 9.2 mph - N/A   Overcast
5:53 PM 34.0 °F 26.6 °F 30.0 °F 85% 30.44 in 10.0 mi SE 9.2 mph - N/A   Overcast
6:53 PM 34.0 °F 25.0 °F 32.0 °F 92% 30.43 in 10.0 mi SE 12.7 mph - N/A   Overcast
7:53 PM 33.1 °F 24.9 °F 32.0 °F 96% 30.42 in 10.0 mi SE 10.4 mph - N/A   Overcast
8:53 PM 33.1 °F 24.9 °F 33.1 °F 100% 30.41 in 10.0 mi SSE 10.4 mph - N/A   Overcast
9:09 PM 33.8 °F 25.8 °F 33.8 °F 100% 30.41 in 10.0 mi SSE 10.4 mph - N/A   Overcast
9:53 PM 33.1 °F 24.9 °F 33.1 °F 100% 30.40 in 10.0 mi SE 10.4 mph - N/A   Overcast
10:53 PM 33.1 °F 24.4 °F 33.1 °F 100% 30.40 in 10.0 mi SSE 11.5 mph - N/A   Overcast
11:53 PM 34.0 °F 25.0 °F 30.9 °F 89% 30.39 in 10.0 mi SSE 12.7 mph - N/A   Overcast